Regional Weather Roundup
Issued by NWS

Home | Current Version | Previous Version | Text Only | Print | Product List | Glossary On
Versions: 1 2 3 4 5 6 7 8 9 10 11 12 13 14 15 16 17 18 19 20 21 22 23 24 25 26 27 28 29 30 31 32 33 34 35 36 37 38 39 40 41 42 43 44 45 46 47 48 49 50
000
ASUS44 KLUB 310001
RWRTX
WEST TEXAS WEATHER ROUNDUP
NATIONAL WEATHER SERVICE LUBBOCK TX
700 PM CDT SUN AUG 30 2015

NOTE: "FAIR" INDICATES FEW OR NO CLOUDS BELOW 12,000 FEET WITH NO
SIGNIFICANT WEATHER AND/OR OBSTRUCTIONS TO VISIBILITY.

TXZ004-006>008-010-012-014-016-OKZ002-310100-
TEXAS PANHANDLE/OKLAHOMA PANHANDLE

CITY           SKY/WX    TMP DP  RH WIND       PRES   REMARKS
AMARILLO       SUNNY     84  52  33 S9        30.03F HAZE
BORGER         SUNNY     89  49  25 S7        29.99F
CANADIAN       SUNNY     89  52  28 E6        29.95S
DALHART        SUNNY     90  44  20 S13       30.03S
DUMAS          SUNNY     84  50  29 SE10      30.02S
GUYMON         SUNNY     87  50  27 S8        29.97S HAZE
$$

TXZ026-029-035-045-048-310100-
SOUTHERN PANHANDLE/SOUTH PLAINS/ROLLING PLAINS

CITY           SKY/WX    TMP DP  RH WIND       PRES   REMARKS
CHILDRESS      SUNNY     92  53  26 CALM      29.93F
LUBBOCK        SUNNY     87  48  25 SE13      30.02S
$$

TXZ052-054-060>062-072-078-127-140-154-169-310100-
PERMIAN BASIN/CONCHO VALLEY/BIG COUNTRY/EDWARDS PLATEAU

CITY           SKY/WX    TMP DP  RH WIND       PRES   REMARKS
ABILENE        MOSUNNY   90  56  31 SW6       29.97S
BIG SPRING     SUNNY     88  51  28 SW3       30.02F
JUNCTION       CLOUDY    72  69  90 S3        30.03S
MIDLAND        SUNNY     90  50  25 SE9       30.01S
ODESSA         MOSUNNY   89  48  24 SE9       30.02S
SAN ANGELO     MOSUNNY   82  61  48 S16       29.99S
WINK           SUNNY     91  50  24 E12       29.97F
$$

TXZ055-058-074-075-080-082-310100-
FAR WEST/SOUTHWEST MOUNTAINS/TRANS PECOS

CITY           SKY/WX    TMP DP  RH WIND       PRES   REMARKS
ALPINE         MOSUNNY   84  48  28 SE7       30.13S
DRYDEN           N/A     90  55  30 E7G21     29.97S
EL PASO        MOSUNNY   90  47  22 CALM      30.00F
FORT STOCKTON  SUNNY     89  49  25 SE9G18    30.00S
GUADALUPE PASS SUNNY     80  46  30 E16G26    30.16F
MARFA          MOSUNNY   84  48  28 E12       30.12S
$$

TXZ014-016-019-021>030-083-310100
TEXAS TECH WEST TEXAS MESONET/TEXAS PANHANDLE/NORTHERN SOUTH PLAINS

CITY           SKY/WX    TMP DP  RH WIND       PRES   REMARKS
ABERNATHY 5ENE   N/A     87  47  24 S7        30.03S
AMARILLO 9NNE    N/A     87  56  34 S12       30.00F
AMARILLO 7SSE    N/A     84  55  35 S8        30.04F
AMHERST 1NE      N/A     87  46  24 S5        30.03F
BOOTLEG 11WNW    N/A     86  47  26 S9        30.08F
CANADIAN 6E      N/A     87  54  31 E7        29.94F
CAPROCK CYN SP   N/A     91  51  25 CALM      29.98F
CHILDRESS 2NNE   N/A     92  51  24 CALM      29.93F
CLARENDON 2WSW   N/A     88  51  27 S6        29.99S
CLAUDE 12SW      N/A     85  52  31 S8        30.03S
DIMMITT 2NE      N/A     86  49  27 S9        30.05S
FLOYDADA 2NNE    N/A     87  42  20 S5        30.02S
FRIONA 2NE       N/A     86  46  24 S12       30.05S
GOODLETT 3W      N/A     94  50  22 NE5       29.90F
HART 3N          N/A     85  53  34 SE6       30.04F
HEREFORD 2NW     N/A     85  47  26 SE9       30.04S
MCLEAN 1E        N/A     86  50  29 S8        29.98S
MEMPHIS 1NE      N/A     91  50  23 SE5       29.94F
MULESHOE 2SSW    N/A     87  47  24 S9        30.03F
OLTON 6S         N/A     86  46  24 S6        30.03F
PALO DURO SP     N/A     85  54  34 S6        30.04S
PAMPA 2E         N/A     85  53  32 SE9       30.01S
PLAINVIEW 1S     N/A     87  50  28 SW6       30.02S
SILVERTON 7ESE   N/A     87  51  29 CALM      30.01F
TULIA 2ENE       N/A     85  54  33 S7        30.03F
TURKEY 2WSW      N/A     91  56  31 SE1       29.96S
UMBARGER 3NNE    N/A     84  52  32 S7        30.05S
$$

TXZ033>036-039>041-045>048-310100
TEXAS TECH WEST TEXAS MESONET/SOUTH PLAINS

CITY           SKY/WX    TMP DP  RH WIND       PRES   REMARKS
AIKEN 3WSW       N/A     88  54  31 S8        30.03S
ANDREWS 2NE      N/A     87  50  27 E5        30.03S
ANTON 6SSW       N/A     86  49  27 S6        30.03S
BROWNFIELD 2S    N/A     87  44  22 S6        30.03S
DENVR CTY 7WNW   N/A     86  46  25 S5        30.05S
GAIL 2ESE        N/A     89  54  30 S5        29.99S
LAMESA 2SE       N/A     89  53  28 S9        30.02S
LEVELLAND 4S     N/A     85  48  27 SE5       30.04S
LUBBOCK 3WNW     N/A     88  47  24 S6        30.02S
MORTON 1ENE      N/A     86  48  26 SE7       30.04F
ODONNELL 1N      N/A     89  46  22 SE5       30.02S
PLAINS 3N        N/A     87  47  25 S9        30.05S
RALLS 1SE        N/A     89  49  25 NW2       30.02S
REESE CENTER     N/A     88  46  23 S5        30.03S
SEAGRAVES 1SW    N/A     88  47  23 SE5       30.03S
SEMINOLE 2NNE    N/A     89  47  23 SE7       30.02S
SLATON 2NE       N/A     89  48  24 S9        30.01F
SNYDER 3E        N/A     92  49  22 W1        29.99S
SUNDOWN 8SW      N/A     86  45  23 S7        30.04F
TAHOKA 3NNE      N/A     88  49  25 S6        30.02S
WOLFFORTH 6SSW   N/A     88  48  25 S5        30.03S
$$

TXZ031-032-036>038-042>044-310100-
TEXAS TECH WEST TEXAS MESONET/ROLLING PLAINS

CITY           SKY/WX    TMP DP  RH WIND       PRES   REMARKS
ASPERMONT 3NE    N/A     94  51  23 S7        29.93S
FLUVANNA 3WNW    N/A     88  50  26 S8        30.00S
GRAHAM 5SSW      N/A     89  51  26 S9        30.00S
GUTHRIE 10WSW    N/A     96  46  18 S1        29.93S
HASKELL 1NW      N/A     92  48  21 SE6       29.93S
JAYTON 1SSE      N/A     93  48  21 S3        29.94S
KNOX CITY 3NW    N/A     96  48  19 S9        29.91S
LK A HENRY 1NW   N/A     91  55  29 S5        29.96S
NORTHFIELD 1S    N/A     95  52  23 NE2       29.93F
ODELL 4ENE       N/A     94  55  26 CALM      29.91S
PADUCAH 10SW     N/A     95  47  19 W1        29.93S
POST 1NE         N/A     91  50  24 W1        29.98S
RRING SPRGS 3N   N/A     91  50  24 SW1       29.97F
SEYMOUR 3NW      N/A     95  48  20 SE9       29.90S
SPUR 1W          N/A     94  41  16 SW3       29.95S
WEINERT 2NNE     N/A     95  53  24 S5        29.92S
WHITE RVR 6NE    N/A     91  47  22 S8        29.98S
$$

TXZ052-054-060>062-072-078-127-140-154-169-310100-
TEXAS TECH WEST TEXAS MESONET/PERMIAN BASIN/
CONCHO VALLEY/BIG COUNTRY/EDWARDS PLATEAU

CITY           SKY/WX    TMP DP  RH WIND       PRES   REMARKS
JUNCTION 1SSW    N/A     71  68  93 S1        30.03S
MERTZON 3NNE     N/A     83  59  43 SE10      30.02S
SAN ANGELO 7NW   N/A     86  55  34 S16       29.99S
STRLNG CT 4WSW   N/A     90  52  27 SE5       30.00F
ST LAWRNCE 5SW   N/A     89  51  26 CALM      30.02S
SWEETWATR 11SW   N/A     90  56  31 S7        30.01F
WALL 1E          N/A     84  59  42 S16       30.00S
$$

TXZ055-058-074-075-080-082-310100-
TEXAS TECH WEST TEXAS MESONET/FAR WEST/SOUTHWEST MOUNTAINS/TRANS PECOS

CITY           SKY/WX    TMP DP  RH WIND       PRES   REMARKS
PRSMN GAP BBNP   N/A     91  51  25 NE12      29.97S
$$



USA.gov is the U.S. government's official web portal to all federal, state and local government web resources and services.